Precipitable_Water
1.39 1.38 1.42 1.45 1.49 1.56 1.67 1.63 1.64 1.66 1.66 1.63 1.66 1.68 1.67 1.61 1.52 1.42 1.35 1.31 1.31 1.27 1.24 1.23 1.21 1.18 1.18 1.21 1.16 1.10 1.14 1.14 1.10 1.08 1.07 1.05 1.05 1.09 1.10 1.10 1.03 0.99 0.98 0.93 0.89 0.93 0.99 1.02 1.04 1.06 1.09 1.16 1.09 1.06 1.04 1.01 1.03 1.01 0.98 0.97 0.93 0.89
1.41 1.43 1.47 1.50 1.54 1.62 1.64 1.69 1.68 1.66 1.67 1.65 1.68 1.68 1.67 1.61 1.51 1.41 1.33 1.31 1.32 1.30 1.26 1.25 1.22 1.21 1.19 1.15 1.09 1.01 1.06 1.10 1.09 1.08 1.06 1.03 1.04 1.09 1.10 1.06 1.00 0.98 0.97 0.94 0.92 0.94 0.99 1.00 1.02 1.03 1.08 1.12 1.09 1.07 1.07 1.02 1.02 1.01 1.00 1.00 0.97 0.95
1.47 1.48 1.51 1.53 1.58 1.64 1.66 1.69 1.67 1.67 1.64 1.66 1.69 1.70 1.64 1.63 1.52 1.40 1.32 1.32 1.34 1.35 1.35 1.33 1.26 1.23 1.19 1.14 1.11 1.07 1.03 1.08 1.10 1.08 1.06 1.03 1.04 1.09 1.12 1.12 1.10 1.11 1.08 1.03 1.01 1.01 1.02 1.02 1.01 1.03 1.06 1.08 1.09 1.07 1.07 1.05 1.06 1.07 1.04 1.03 1.01 0.99
1.56 1.50 1.52 1.56 1.62 1.64 1.65 1.65 1.64 1.66 1.65 1.66 1.69 1.68 1.62 1.59 1.49 1.40 1.37 1.38 1.38 1.36 1.38 1.40 1.38 1.31 1.23 1.16 1.10 1.07 1.04 1.10 1.13 1.09 1.06 1.04 1.04 1.09 1.16 1.19 1.18 1.21 1.24 1.21 1.16 1.14 1.13 1.12 1.11 1.11 1.12 1.12 1.11 1.12 1.11 1.09 1.09 1.09 1.09 1.08 1.05 1.01
1.60 1.55 1.55 1.58 1.60 1.61 1.64 1.61 1.60 1.60 1.62 1.62 1.61 1.62 1.56 1.52 1.44 1.45 1.45 1.47 1.52 1.52 1.46 1.49 1.49 1.43 1.27 1.13 1.07 1.01 1.03 1.10 1.11 1.07 1.08 1.01 1.02 1.09 1.19 1.22 1.25 1.28 1.29 1.26 1.21 1.22 1.20 1.16 1.13 1.12 1.11 1.13 1.14 1.18 1.14 1.12 1.12 1.13 1.09 1.06 1.02 0.98
1.60 1.58 1.60 1.57 1.58 1.62 1.62 1.57 1.57 1.57 1.56 1.53 1.53 1.48 1.45 1.51 1.57 1.55 1.59 1.54 1.54 1.55 1.54 1.52 1.49 1.47 1.37 1.19 1.06 0.97 0.99 1.08 1.07 1.03 1.05 1.01 1.01 1.11 1.20 1.25 1.31 1.34 1.36 1.37 1.32 1.28 1.27 1.26 1.18 1.13 1.13 1.11 1.14 1.14 1.14 1.13 1.13 1.11 1.07 1.04 1.00 0.97
1.52 1.60 1.54 1.58 1.61 1.60 1.58 1.58 1.56 1.55 1.47 1.43 1.47 1.42 1.38 1.48 1.54 1.60 1.57 1.54 1.45 1.42 1.48 1.49 1.48 1.46 1.38 1.30 1.16 0.99 0.97 1.04 1.03 1.01 1.01 0.99 1.01 1.13 1.19 1.23 1.27 1.34 1.39 1.40 1.38 1.36 1.35 1.33 1.27 1.18 1.12 1.09 1.08 1.09 1.10 1.12 1.14 1.09 1.08 1.07 1.02 0.99
1.57 1.59 1.56 1.59 1.58 1.57 1.58 1.56 1.55 1.56 1.52 1.43 1.41 1.39 1.47 1.50 1.52 1.54 1.54 1.53 1.55 1.51 1.48 1.45 1.45 1.41 1.40 1.36 1.21 1.07 0.98 1.02 1.01 1.00 1.01 1.01 1.02 1.10 1.15 1.21 1.27 1.34 1.34 1.35 1.34 1.36 1.33 1.30 1.27 1.18 1.09 1.04 1.02 1.03 1.05 1.13 1.15 1.12 1.10 1.08 1.05 1.00
1.56 1.58 1.58 1.60 1.56 1.58 1.59 1.57 1.57 1.54 1.50 1.51 1.43 1.40 1.47 1.50 1.50 1.52 1.54 1.54 1.52 1.51 1.51 1.45 1.44 1.41 1.47 1.42 1.31 1.09 0.94 0.98 1.01 1.01 1.01 1.01 1.07 1.10 1.14 1.19 1.23 1.26 1.26 1.30 1.30 1.31 1.28 1.23 1.18 1.14 1.08 1.01 1.02 1.03 1.07 1.12 1.13 1.13 1.11 1.08 1.06 1.00
1.56 1.57 1.59 1.59 1.57 1.57 1.57 1.52 1.53 1.52 1.51 1.51 1.45 1.45 1.45 1.46 1.51 1.53 1.52 1.51 1.53 1.55 1.50 1.48 1.50 1.49 1.48 1.44 1.43 1.23 1.09 0.96 0.92 0.99 1.00 0.98 1.10 1.16 1.18 1.22 1.22 1.19 1.22 1.26 1.29 1.31 1.29 1.19 1.13 1.09 1.09 1.02 1.04 1.06 1.09 1.11 1.11 1.11 1.10 1.07 1.09 1.04
1.58 1.59 1.58 1.55 1.55 1.54 1.55 1.49 1.51 1.54 1.54 1.50 1.49 1.47 1.45 1.45 1.46 1.46 1.51 1.52 1.52 1.53 1.54 1.55 1.54 1.49 1.49 1.47 1.45 1.37 1.17 1.05 0.91 0.87 0.95 0.98 1.13 1.20 1.22 1.24 1.22 1.22 1.25 1.29 1.30 1.32 1.29 1.16 1.08 1.07 1.10 1.04 1.02 1.07 1.06 1.08 1.08 1.10 1.09 1.10 1.11 1.08
1.55 1.57 1.55 1.54 1.56 1.55 1.53 1.50 1.49 1.49 1.48 1.48 1.49 1.45 1.44 1.45 1.47 1.47 1.51 1.54 1.54 1.50 1.52 1.53 1.55 1.50 1.48 1.50 1.48 1.47 1.31 1.15 1.03 0.96 1.00 1.06 1.10 1.18 1.23 1.27 1.29 1.29 1.30 1.35 1.38 1.38 1.30 1.19 1.11 1.08 1.10 1.10 1.11 1.09 1.11 1.10 1.07 1.07 1.09 1.11 1.14 1.13
1.56 1.54 1.52 1.52 1.53 1.54 1.52 1.49 1.45 1.41 1.42 1.43 1.43 1.43 1.42 1.44 1.47 1.49 1.51 1.52 1.50 1.46 1.46 1.43 1.48 1.48 1.49 1.51 1.50 1.46 1.39 1.23 1.15 1.07 1.02 1.11 1.17 1.21 1.26 1.29 1.29 1.33 1.33 1.37 1.41 1.42 1.36 1.26 1.19 1.16 1.15 1.14 1.15 1.14 1.15 1.16 1.14 1.15 1.13 1.13 1.15 1.17
1.53 1.48 1.48 1.48 1.47 1.45 1.43 1.41 1.41 1.40 1.42 1.42 1.43 1.42 1.44 1.47 1.47 1.49 1.50 1.49 1.49 1.48 1.44 1.42 1.41 1.42 1.46 1.48 1.47 1.43 1.40 1.27 1.23 1.14 1.10 1.10 1.17 1.25 1.28 1.31 1.30 1.30 1.31 1.36 1.42 1.42 1.33 1.29 1.28 1.26 1.21 1.24 1.21 1.16 1.19 1.19 1.18 1.15 1.17 1.16 1.17 1.18
1.51 1.47 1.45 1.42 1.41 1.40 1.43 1.41 1.43 1.43 1.43 1.44 1.44 1.43 1.46 1.47 1.49 1.49 1.49 1.48 1.49 1.50 1.46 1.42 1.39 1.37 1.38 1.41 1.38 1.36 1.31 1.34 1.32 1.16 1.11 1.12 1.18 1.28 1.31 1.33 1.34 1.31 1.36 1.39 1.44 1.47 1.40 1.33 1.32 1.28 1.26 1.27 1.20 1.15 1.18 1.19 1.18 1.19 1.19 1.17 1.19 1.18
1.46 1.43 1.41 1.40 1.40 1.40 1.43 1.40 1.41 1.43 1.45 1.47 1.45 1.43 1.46 1.46 1.48 1.50 1.50 1.49 1.50 1.49 1.45 1.45 1.44 1.43 1.38 1.35 1.35 1.32 1.30 1.38 1.42 1.28 1.15 1.15 1.21 1.24 1.29 1.31 1.39 1.40 1.34 1.38 1.44 1.44 1.43 1.36 1.36 1.34 1.32 1.27 1.23 1.18 1.25 1.28 1.23 1.21 1.22 1.22 1.21 1.21
1.37 1.35 1.36 1.36 1.35 1.37 1.40 1.35 1.34 1.39 1.44 1.48 1.47 1.45 1.48 1.49 1.47 1.47 1.48 1.49 1.52 1.50 1.46 1.48 1.47 1.46 1.43 1.36 1.32 1.31 1.33 1.37 1.43 1.39 1.27 1.21 1.24 1.28 1.27 1.30 1.38 1.45 1.42 1.36 1.35 1.39 1.42 1.41 1.39 1.37 1.39 1.33 1.29 1.28 1.29 1.34 1.33 1.29 1.29 1.21 1.21 1.21
1.35 1.36 1.36 1.36 1.34 1.31 1.33 1.39 1.40 1.41 1.44 1.47 1.49 1.54 1.53 1.50 1.44 1.46 1.48 1.44 1.48 1.49 1.49 1.46 1.43 1.44 1.43 1.41 1.37 1.36 1.38 1.39 1.43 1.44 1.43 1.38 1.33 1.35 1.32 1.33 1.35 1.44 1.46 1.45 1.41 1.38 1.39 1.42 1.45 1.45 1.40 1.39 1.37 1.36 1.34 1.35 1.34 1.36 1.33 1.27 1.24 1.21
1.32 1.38 1.41 1.42 1.41 1.42 1.44 1.45 1.45 1.42 1.42 1.43 1.48 1.54 1.57 1.51 1.48 1.49 1.51 1.49 1.48 1.50 1.49 1.46 1.43 1.43 1.41 1.40 1.39 1.40 1.41 1.43 1.45 1.43 1.44 1.42 1.39 1.40 1.39 1.40 1.41 1.44 1.51 1.51 1.50 1.46 1.44 1.44 1.45 1.46 1.43 1.41 1.43 1.42 1.41 1.42 1.42 1.40 1.37 1.34 1.32 1.34
1.29 1.35 1.43 1.45 1.47 1.46 1.47 1.44 1.37 1.39 1.37 1.37 1.40 1.41 1.46 1.49 1.49 1.48 1.53 1.55 1.55 1.54 1.54 1.52 1.49 1.44 1.41 1.43 1.42 1.41 1.41 1.46 1.47 1.46 1.44 1.39 1.37 1.38 1.36 1.39 1.44 1.46 1.46 1.48 1.52 1.50 1.49 1.44 1.41 1.42 1.41 1.44 1.45 1.45 1.43 1.43 1.41 1.41 1.40 1.36 1.34 1.37
1.26 1.33 1.37 1.40 1.42 1.41 1.37 1.38 1.40 1.37 1.31 1.35 1.33 1.35 1.37 1.40 1.43 1.45 1.50 1.53 1.56 1.58 1.58 1.57 1.53 1.46 1.40 1.42 1.43 1.44 1.42 1.44 1.49 1.48 1.46 1.41 1.43 1.44 1.45 1.44 1.47 1.49 1.42 1.39 1.40 1.46 1.45 1.43 1.33 1.30 1.37 1.36 1.37 1.44 1.45 1.43 1.40 1.38 1.39 1.41 1.43 1.40
1.21 1.28 1.33 1.35 1.34 1.32 1.31 1.30 1.29 1.30 1.31 1.30 1.29 1.28 1.27 1.35 1.39 1.44 1.49 1.52 1.54 1.57 1.61 1.60 1.57 1.52 1.46 1.43 1.40 1.40 1.41 1.42 1.46 1.45 1.45 1.47 1.49 1.52 1.52 1.46 1.46 1.43 1.49 1.38 1.31 1.39 1.41 1.37 1.24 1.19 1.19 1.20 1.25 1.34 1.39 1.40 1.38 1.39 1.37 1.38 1.42 1.43
1.10 1.15 1.22 1.29 1.29 1.25 1.31 1.35 1.32 1.30 1.32 1.32 1.40 1.39 1.36 1.38 1.43 1.41 1.44 1.50 1.54 1.57 1.60 1.60 1.59 1.56 1.51 1.48 1.45 1.41 1.37 1.42 1.43 1.45 1.44 1.42 1.45 1.48 1.51 1.45 1.41 1.35 1.37 1.41 1.36 1.42 1.40 1.40 1.23 1.29 1.29 1.19 1.11 1.08 1.20 1.27 1.36 1.37 1.38 1.37 1.40 1.39
1.02 1.09 1.12 1.17 1.21 1.29 1.32 1.35 1.36 1.33 1.35 1.36 1.30 1.34 1.35 1.38 1.39 1.39 1.35 1.40 1.44 1.49 1.53 1.58 1.59 1.56 1.56 1.54 1.50 1.43 1.39 1.38 1.41 1.46 1.45 1.42 1.43 1.44 1.48 1.46 1.43 1.42 1.38 1.25 1.26 1.28 1.40 1.42 1.34 1.23 1.05 1.07 1.11 1.10 0.97 1.06 1.19 1.35 1.42 1.39 1.39 1.36
0.94 1.00 1.04 1.09 1.18 1.27 1.29 1.28 1.33 1.36 1.39 1.36 1.33 1.27 1.23 1.20 1.24 1.28 1.30 1.31 1.34 1.43 1.48 1.52 1.56 1.54 1.53 1.52 1.53 1.49 1.42 1.40 1.42 1.47 1.48 1.43 1.40 1.41 1.45 1.51 1.52 1.46 1.41 1.30 1.23 1.26 1.34 1.41 1.38 1.38 1.22 1.12 1.06 1.00 1.01 1.14 1.20 1.21 1.39 1.36 1.39 1.39
0.94 0.96 0.99 1.06 1.18 1.23 1.20 1.18 1.18 1.15 1.11 1.11 1.08 1.08 1.03 1.03 1.09 1.09 1.12 1.25 1.33 1.40 1.44 1.50 1.53 1.51 1.51 1.52 1.50 1.48 1.44 1.42 1.42 1.46 1.49 1.46 1.46 1.46 1.45 1.48 1.52 1.51 1.47 1.46 1.31 1.26 1.24 1.38 1.41 1.43 1.43 1.37 1.28 1.09 1.10 1.20 1.13 0.94 1.27 1.38 1.36 1.37
0.93 0.96 1.01 1.08 1.17 1.19 1.16 1.17 1.15 1.13 1.12 1.10 1.06 1.10 1.16 1.17 1.12 1.13 1.15 1.17 1.25 1.34 1.39 1.42 1.45 1.48 1.47 1.47 1.46 1.46 1.45 1.43 1.43 1.43 1.45 1.43 1.38 1.38 1.42 1.46 1.52 1.50 1.49 1.47 1.41 1.24 1.20 1.27 1.41 1.42 1.46 1.46 1.42 1.38 1.31 1.12 1.00 1.07 0.94 1.17 1.30 1.30
0.98 1.02 1.07 1.11 1.13 1.14 1.10 1.11 1.11 1.11 1.12 1.11 1.10 1.09 1.16 1.17 1.19 1.19 1.17 1.16 1.21 1.27 1.33 1.38 1.38 1.39 1.42 1.43 1.44 1.44 1.45 1.43 1.41 1.41 1.39 1.33 1.30 1.33 1.38 1.43 1.44 1.44 1.44 1.40 1.37 1.26 1.19 1.25 1.22 1.30 1.44 1.40 1.39 1.41 1.40 1.36 1.30 1.14 1.07 0.98 1.01 1.24
0.98 1.02 1.07 1.12 1.10 1.10 1.08 1.07 1.08 1.11 1.08 1.12 1.15 1.16 1.22 1.23 1.18 1.19 1.14 1.16 1.19 1.27 1.31 1.34 1.35 1.34 1.35 1.37 1.39 1.39 1.39 1.36 1.36 1.35 1.34 1.31 1.31 1.31 1.31 1.31 1.31 1.29 1.25 1.27 1.30 1.32 1.27 1.21 1.23 1.20 1.25 1.29 1.35 1.32 1.33 1.32 1.30 1.28 1.13 1.03 0.99 1.03
0.98 1.00 1.03 1.06 1.07 1.06 1.07 1.07 1.05 1.05 1.03 1.06 1.13 1.17 1.21 1.20 1.18 1.19 1.11 1.11 1.17 1.24 1.31 1.33 1.34 1.33 1.32 1.34 1.35 1.37 1.35 1.32 1.31 1.32 1.32 1.30 1.29 1.28 1.28 1.28 1.27 1.25 1.26 1.24 1.29 1.29 1.25 1.25 1.26 1.26 1.26 1.25 1.20 1.21 1.20 1.19 1.21 1.21 1.21 1.18 1.01 1.01
0.98 1.00 1.01 1.01 1.05 1.04 1.06 1.06 1.03 1.01 1.00 1.01 1.07 1.11 1.12 1.14 1.17 1.16 1.11 1.10 1.13 1.21 1.29 1.32 1.35 1.34 1.34 1.35 1.36 1.38 1.38 1.38 1.38 1.35 1.31 1.28 1.25 1.23 1.25 1.25 1.26 1.28 1.29 1.28 1.28 1.28 1.25 1.25 1.24 1.21 1.19 1.18 1.14 1.13 1.07 1.04 1.09 1.16 1.14 1.10 1.09 1.08
0.98 0.99 1.00 1.02 1.04 1.05 1.07 1.06 1.04 1.02 1.00 1.02 1.05 1.05 1.04 1.05 1.10 1.10 1.11 1.09 1.14 1.20 1.24 1.29 1.31 1.29 1.28 1.33 1.36 1.37 1.39 1.39 1.37 1.35 1.31 1.29 1.26 1.24 1.25 1.26 1.25 1.23 1.23 1.25 1.25 1.22 1.21 1.18 1.18 1.17 1.15 1.17 1.15 1.17 1.16 1.13 1.15 1.16 1.12 1.10 1.10 1.07
0.95 1.00 1.01 1.04 1.04 1.05 1.06 1.05 1.05 1.03 1.01 1.04 1.06 1.08 1.07 1.07 1.10 1.08 1.10 1.09 1.11 1.13 1.20 1.21 1.25 1.24 1.26 1.30 1.34 1.36 1.37 1.35 1.33 1.33 1.30 1.26 1.22 1.22 1.23 1.22 1.20 1.20 1.21 1.18 1.18 1.19 1.17 1.16 1.17 1.12 1.11 1.17 1.18 1.16 1.13 1.18 1.17 1.14 1.16 1.17 1.15 1.01
0.98 1.05 1.08 1.09 1.09 1.08 1.07 1.07 1.09 1.08 1.06 1.05 1.03 1.05 1.08 1.09 1.13 1.13 1.13 1.11 1.10 1.12 1.17 1.20 1.24 1.24 1.27 1.30 1.32 1.35 1.39 1.38 1.37 1.34 1.28 1.24 1.21 1.19 1.18 1.15 1.14 1.16 1.17 1.19 1.20 1.19 1.16 1.14 1.15 1.15 1.17 1.12 1.12 1.11 1.10 1.14 1.16 1.16 1.12 1.08 1.04 1.00
1.01 1.08 1.12 1.14 1.15 1.11 1.10 1.11 1.13 1.15 1.13 1.11 1.08 1.08 1.08 1.11 1.11 1.11 1.13 1.13 1.15 1.17 1.17 1.21 1.21 1.27 1.29 1.27 1.28 1.30 1.32 1.32 1.33 1.30 1.28 1.26 1.24 1.21 1.18 1.14 1.13 1.13 1.13 1.17 1.17 1.15 1.10 1.08 1.06 1.06 1.05 1.03 1.03 1.05 1.06 1.10 1.14 1.14 1.15 1.10 1.06 1.06
1.02 1.08 1.14 1.16 1.14 1.12 1.12 1.13 1.14 1.12 1.13 1.14 1.15 1.16 1.16 1.16 1.15 1.16 1.16 1.18 1.20 1.21 1.18 1.15 1.18 1.23 1.25 1.22 1.21 1.21 1.22 1.22 1.26 1.26 1.24 1.25 1.24 1.18 1.17 1.17 1.16 1.17 1.14 1.17 1.11 1.08 1.08 1.09 1.07 1.08 1.05 1.06 1.03 1.00 1.05 1.07 1.08 1.08 1.09 1.10 1.10 1.10
1.05 1.10 1.13 1.13 1.12 1.14 1.15 1.13 1.11 1.11 1.11 1.12 1.13 1.14 1.15 1.17 1.17 1.19 1.20 1.22 1.22 1.18 1.12 1.16 1.20 1.20 1.17 1.22 1.26 1.26 1.23 1.21 1.19 1.18 1.18 1.17 1.16 1.15 1.16 1.17 1.15 1.11 1.10 1.14 1.12 1.08 1.11 1.09 1.09 1.10 1.08 1.07 1.05 1.05 1.07 1.10 1.10 1.09 1.08 1.08 1.08 1.06
Wind_Speed
12 12 13 13 14 14 15 15 15 16 15 15 14 14 14 13 12 12 11 11 10 10 10 9 9 9 9 9 9 9 10 10 9 9 9 8 8 8 8 7 6 6 6 6 7 8 8 7 6 6 5 3 4 5 6 7 6 6 5 4 4 3
12 12 13 13 14 14 15 15 15 15 15 14 14 14 13 13 12 12 11 10 10 10 10 9 9 9 9 9 9 9 10 10 10 10 9 9 8 8 8 7 6 6 5 6 7 8 8 7 7 6 5 4 4 5 7 7 7 7 6 6 5 4
11 12 13 14 14 15 15 15 15 15 15 14 14 14 13 13 12 11 11 10 9 9 10 10 9 9 9 10 10 10 10 11 11 10 9 9 8 8 8 7 6 6 5 6 7 7 7 7 7 7 6 5 5 5 6 8 8 7 7 6 6 5
12 12 13 14 15 15 15 15 14 15 15 14 14 13 13 13 12 11 10 10 9 9 10 10 9 9 9 10 11 11 11 11 11 11 10 9 9 8 8 7 7 6 6 6 7 7 7 7 7 7 6 5 5 6 7 8 8 8 8 8 7 6
12 12 13 14 14 14 15 14 14 14 14 14 14 13 13 13 12 11 10 10 10 9 9 9 9 9 9 10 11 11 12 12 12 11 10 9 9 9 8 8 7 7 7 7 7 7 7 7 7 7 7 6 6 6 7 8 8 9 9 8 8 7
11 12 13 14 14 14 15 14 14 14 14 14 14 13 13 13 12 12 11 11 10 9 9 8 8 9 9 9 10 11 12 12 12 11 11 10 9 9 8 8 7 7 7 7 8 7 7 7 7 7 7 7 7 7 8 8 9 9 9 9 8 7
11 12 13 13 14 14 14 14 14 14 14 14 14 14 13 13 13 12 12 11 11 10 10 9 8 9 9 9 9 10 11 12 12 12 11 10 10 9 9 8 8 8 8 8 7 7 7 7 7 7 7 7 7 7 8 8 9 9 9 9 8 7
11 12 13 14 14 14 14 14 14 14 14 14 14 14 13 13 13 13 13 12 11 11 11 10 9 9 9 9 9 9 10 12 12 12 11 11 10 9 9 9 8 8 8 8 8 8 8 8 7 7 7 7 7 8 8 8 8 9 9 9 8 7
12 12 13 13 14 14 14 14 13 14 14 14 14 14 14 13 13 13 13 12 12 12 11 10 9 9 8 8 8 8 9 11 12 12 12 11 11 10 9 9 9 9 9 8 8 7 7 7 7 7 7 6 6 7 8 8 8 9 9 9 8 7
12 13 13 13 13 13 14 14 13 13 14 14 14 14 13 13 13 13 13 13 13 12 11 10 9 9 8 8 7 7 8 9 10 11 12 12 11 10 10 9 9 9 9 8 8 7 6 6 6 7 7 6 6 7 8 8 8 9 10 9 8 7
13 13 14 13 13 13 13 13 14 14 14 14 14 14 13 13 13 13 13 13 12 12 12 10 9 9 9 8 8 7 7 7 8 10 11 11 11 10 10 10 9 9 9 8 8 7 6 5 6 6 6 6 6 6 7 8 8 9 10 9 8 7
14 14 14 14 14 14 14 14 14 14 14 14 14 13 13 13 13 12 13 13 12 12 12 10 10 9 8 8 8 8 7 7 8 9 10 11 11 10 10 10 9 10 9 9 7 6 5 5 5 6 6 6 6 6 7 7 8 9 10 9 9 8
14 14 14 14 14 14 14 14 14 14 14 14 13 13 13 13 12 12 13 13 12 12 12 11 10 9 8 8 8 8 8 8 8 9 10 10 10 10 10 9 9 9 9 8 7 6 5 5 5 5 6 7 6 7 7 7 7 8 8 9 8 8
13 13 14 14 14 14 14 14 14 14 14 14 13 13 13 13 12 12 12 13 12 12 12 12 11 10 9 9 9 9 8 8 8 9 10 10 10 9 9 9 9 9 9 8 8 7 6 5 5 5 6 6 6 7 7 7 7 7 8 8 8 9
12 13 13 14 14 14 14 13 13 14 13 13 13 13 13 13 12 12 12 12 12 12 12 12 11 11 10 10 10 9 9 8 8 8 9 10 9 8 8 9 9 9 8 8 7 7 6 6 5 5 6 6 6 7 7 7 7 7 7 8 8 9
12 12 13 13 14 14 13 12 13 13 12 12 13 13 13 13 12 12 12 11 12 12 12 12 11 11 11 10 10 9 9 10 9 9 9 10 9 9 8 9 9 9 8 8 7 7 7 6 5 5 5 5 6 6 7 7 7 7 8 8 8 9
11 12 12 12 13 14 13 12 12 12 12 11 12 12 13 13 12 12 12 11 11 11 12 12 11 11 11 11 10 10 10 11 11 9 9 10 10 9 9 9 9 9 9 8 7 7 7 7 6 5 5 5 5 6 6 7 7 7 8 8 9 9
10 10 11 12 13 13 13 13 12 12 12 11 11 11 12 13 12 12 12 11 11 11 12 12 11 11 11 11 11 10 11 11 11 10 10 10 10 10 9 9 9 9 8 8 8 8 8 7 7 6 6 6 6 6 7 7 7 7 8 8 9 10
9 9 10 11 12 12 12 12 12 12 12 11 11 11 11 12 12 12 12 12 12 11 11 11 11 11 11 11 11 11 11 11 11 11 11 10 10 10 9 9 9 9 9 9 8 8 8 8 8 7 7 7 7 7 8 8 7 8 8 8 9 10
8 9 9 10 10 10 11 11 11 11 11 11 11 11 11 11 11 11 11 11 12 11 11 12 12 12 11 11 12 12 12 12 11 11 11 11 11 10 10 10 10 10 10 9 9 8 8 8 8 8 8 8 8 8 9 9 8 8 9 9 9 10
7 8 8 9 9 9 10 10 10 10 11 11 11 11 11 11 11 11 11 12 12 12 11 12 12 12 12 12 12 12 12 12 12 11 11 11 11 10 10 10 10 10 10 10 10 9 9 9 9 9 9 9 9 9 9 9 9 9 9 10 10 10
7 7 8 8 9 9 9 10 10 10 10 9 10 10 11 11 11 11 11 12 12 12 12 12 12 12 11 11 11 12 12 12 12 12 12 12 11 11 11 10 10 10 10 11 10 10 10 9 9 9 9 9 9 10 10 10 10 10 11 11 11 11
7 7 7 8 9 9 9 9 9 9 9 8 9 9 9 10 10 10 11 11 11 12 12 12 12 12 11 11 11 11 12 12 12 12 12 12 12 11 11 11 11 11 11 11 11 10 10 10 9 9 9 9 9 9 10 10 11 11 12 12 12 12
8 8 7 8 8 8 8 9 9 9 9 8 8 8 8 9 10 10 10 11 11 12 12 12 12 12 11 11 11 11 12 12 12 12 12 12 12 12 11 11 11 11 11 11 11 11 10 10 10 10 9 9 9 8 9 9 10 10 11 11 12 12
8 8 8 8 8 8 8 8 8 9 9 8 8 8 8 9 9 10 10 10 11 12 12 11 12 12 11 11 11 11 11 12 12 12 12 12 12 12 12 12 12 12 12 12 11 11 11 11 11 11 10 9 9 9 9 8 8 9 9 10 11 11
9 9 9 9 8 8 8 8 8 9 9 9 9 9 9 9 9 10 10 9 9 11 11 11 12 12 11 11 11 11 11 11 11 12 12 12 12 11 12 12 12 11 12 11 11 11 11 11 11 11 11 10 10 10 10 9 8 9 9 9 9 10
9 9 9 9 9 9 8 9 9 9 9 9 9 9 9 10 10 10 10 9 9 10 11 11 12 11 11 11 11 11 11 11 11 11 12 11 11 11 11 11 11 11 11 11 11 11 11 11 10 11 12 12 11 11 11 10 10 10 9 9 9 9
9 9 9 9 9 9 9 9 9 10 10 10 10 10 9 10 10 9 10 10 10 10 11 12 12 12 11 11 11 12 12 12 11 12 12 11 11 11 11 11 11 11 10 10 11 11 11 11 11 11 11 11 11 11 11 11 11 11 10 10 10 10
10 10 10 9 9 9 9 10 10 10 10 11 11 10 10 10 10 10 10 10 10 11 12 12 13 12 12 12 12 12 12 12 12 12 12 11 11 11 11 11 11 11 11 11 11 11 11 11 11 11 11 11 11 11 11 11 11 11 11 11 11 11
11 11 11 10 10 10 10 10 11 11 11 11 11 11 11 11 11 11 11 11 11 11 12 13 13 13 13 13 13 13 12 12 12 12 12 12 12 12 12 12 12 12 12 12 12 12 12 12 12 12 12 12 12 12 12 12 12 12 12 12 12 12
12 12 12 11 11 11 11 11 11 12 12 12 12 12 12 12 12 12 12 12 12 12 12 13 14 14 14 14 14 13 13 13 13 13 13 13 12 12 12 13 13 13 13 13 12 12 13 12 12 12 13 13 13 13 13 13 13 13 13 12 12 13
13 13 13 12 12 12 12 12 12 12 12 12 12 13 13 13 13 13 13 13 13 13 13 13 14 15 15 15 15 14 14 14 14 13 14 14 13 13 13 13 13 13 13 13 13 13 13 13 13 13 13 13 14 14 14 14 14 14 14 14 14 14
13 13 13 13 13 13 13 13 13 12 12 12 13 13 13 13 14 14 14 14 14 14 14 14 14 15 16 16 15 15 15 15 14 14 14 14 14 14 14 14 14 14 14 14 14 14 14 14 14 14 14 14 14 14 14 14 14 14 14 14 14 15
12 13 13 14 14 14 14 14 13 13 13 13 13 13 14 14 14 14 15 15 15 15 15 15 15 16 16 16 16 16 16 16 15 15 15 15 15 15 15 15 15 15 15 15 14 15 15 15 15 15 15 15 15 15 15 15 15 15 15 15 15 15
11 12 13 13 14 14 14 14 14 14 14 14 14 14 14 14 14 14 15 15 15 16 16 16 16 16 17 17 17 17 17 17 16 16 16 16 16 16 16 16 16 16 16 16 15 15 15 15 15 15 15 15 15 16 15 15 15 16 16 16 16 16
10 11 11 12 13 14 14 15 15 15 15 15 15 14 14 14 14 14 15 15 16 16 16 16 16 16 17 17 17 17 18 18 18 17 17 17 17 16 16 17 17 17 17 16 16 16 16 16 16 16 16 16 16 16 16 16 17 17 17 17 18 18
10 10 10 12 13 13 14 15 15 15 16 16 16 16 16 15 15 15 15 16 16 16 16 17 17 17 17 17 17 17 18 18 18 18 18 18 17 17 17 17 17 17 17 17 17 17 17 17 17 17 17 17 17 17 17 17 17 18 18 18 18 19
Wind_Direction
198 197 196 197 197 194 193 192 191 192 193 194 196 198 200 202 204 206 208 210 210 211 212 214 216 218 222 225 227 225 224 223 221 221 222 225 229 232 235 236 239 237 233 229 221 218 221 223 224 225 228 227 225 217 209 210 207 206 213 214 211 212
197 197 196 196 197 194 193 193 193 195 196 198 200 201 203 205 207 208 210 212 213 215 216 218 221 224 226 228 228 226 224 223 222 222 224 228 231 232 232 232 233 232 228 223 217 217 221 224 224 226 227 224 229 223 215 216 213 213 219 216 215 218
197 197 196 196 197 195 194 195 197 198 199 200 203 205 207 209 211 212 214 215 218 221 222 222 225 229 231 232 231 228 225 224 222 222 225 228 230 230 229 230 229 228 223 217 216 221 224 227 228 228 229 229 232 226 217 218 217 219 223 219 219 221
199 197 197 197 197 198 197 198 199 200 202 203 205 208 210 212 214 216 217 218 222 224 226 227 229 232 234 235 234 230 226 223 221 222 225 227 229 229 230 230 228 227 223 218 220 226 229 232 235 234 236 237 235 228 219 219 220 222 225 221 220 221
202 199 199 198 198 199 199 200 201 202 204 205 207 209 211 213 215 218 219 221 224 225 228 230 230 233 235 236 235 232 227 222 222 224 226 227 227 226 227 227 227 228 226 224 226 231 234 238 243 241 242 241 235 228 222 222 222 222 224 220 218 220
205 200 199 200 199 199 200 202 204 205 207 208 209 210 211 213 215 218 220 223 226 228 231 232 231 231 234 235 234 232 228 223 223 226 227 226 224 223 222 222 225 229 230 232 235 237 238 243 247 245 244 241 235 228 224 224 221 221 220 215 214 218
205 202 200 200 201 201 202 205 207 208 209 210 211 212 214 215 217 219 221 225 229 233 235 235 233 232 233 233 233 232 228 224 224 225 225 223 221 221 221 220 223 230 234 237 242 246 244 243 244 244 244 243 238 230 224 223 220 219 215 210 213 217
207 204 203 202 203 205 206 208 210 210 211 213 213 215 217 218 219 221 224 228 231 234 236 236 235 233 233 233 233 232 228 224 223 223 223 220 220 221 222 222 224 231 236 238 242 248 246 240 242 244 242 245 239 226 221 219 216 214 210 208 212 217
208 206 206 205 207 208 209 210 210 211 211 214 215 216 218 220 223 224 226 229 231 232 233 234 234 233 233 235 233 231 229 225 223 224 223 220 220 222 224 225 229 233 237 237 238 241 239 236 240 240 236 238 230 218 217 217 213 209 206 208 212 216
209 208 209 209 210 210 210 210 210 211 212 213 215 216 219 223 226 227 227 228 228 227 228 230 232 230 230 233 231 228 225 223 223 223 223 220 219 222 224 226 230 234 237 236 234 231 232 235 237 236 231 226 216 210 213 214 211 207 204 208 211 214
211 210 211 212 212 210 210 211 211 212 213 215 216 219 222 226 227 227 225 225 225 224 225 227 228 227 229 231 229 224 218 215 218 220 221 221 220 222 223 225 229 234 234 229 228 224 226 235 234 231 226 219 210 205 209 209 208 208 207 210 212 213
212 211 211 212 212 211 210 210 212 214 216 217 219 223 226 226 225 224 222 221 223 222 222 224 224 225 229 229 224 220 219 217 217 219 221 221 221 223 224 225 230 232 227 220 221 222 224 233 230 225 222 220 214 206 207 206 205 208 210 211 212 216
212 212 211 212 213 212 212 212 214 216 218 220 222 225 227 225 223 221 221 221 221 220 220 222 223 227 231 228 221 222 226 225 222 221 220 220 219 220 222 223 225 224 218 216 224 228 228 229 222 218 219 222 221 212 206 206 207 209 211 213 214 219
210 210 210 211 212 212 212 213 216 217 219 221 222 224 223 222 221 219 220 221 220 219 220 221 223 228 229 226 223 226 229 227 224 220 217 217 217 218 220 219 220 217 214 218 228 230 225 223 219 218 220 221 223 218 211 211 215 216 218 219 220 222
207 207 208 210 211 210 211 213 215 216 219 221 221 222 220 219 218 218 219 219 219 219 220 222 223 226 227 225 225 228 229 225 224 220 214 214 216 218 219 217 217 214 216 224 227 222 218 219 220 221 224 224 222 220 217 219 222 225 228 227 227 227
205 207 208 209 210 209 211 213 212 213 217 220 220 220 218 216 216 217 218 217 218 219 221 223 224 225 225 225 227 229 227 222 222 221 217 215 216 218 217 216 217 216 219 225 222 215 215 220 221 221 225 222 215 217 220 222 224 230 234 233 234 234
205 207 207 207 208 208 210 212 212 212 215 217 217 216 216 216 217 217 217 218 219 222 223 223 223 224 226 227 228 229 227 222 220 220 219 218 217 217 217 217 220 221 221 223 220 216 218 220 221 221 223 219 216 218 221 222 224 230 235 236 236 237
201 204 205 204 205 208 210 211 211 212 213 212 211 212 213 216 218 218 219 220 221 224 224 223 222 224 227 228 229 229 227 223 221 222 222 219 216 216 219 219 220 223 222 221 221 221 221 221 222 223 223 224 223 223 225 227 229 233 235 236 236 236
195 197 200 202 204 207 208 207 207 209 209 208 208 209 211 215 219 220 221 222 223 224 224 223 224 226 229 230 230 229 227 224 223 226 224 218 216 216 219 220 220 221 221 220 222 223 223 225 227 228 228 231 232 231 234 236 237 240 237 235 236 236
186 190 192 194 196 198 198 199 202 204 205 206 209 212 214 217 219 220 223 224 226 228 227 226 227 230 231 232 232 229 226 223 224 227 222 217 217 218 220 222 222 222 223 223 225 227 228 230 232 233 234 237 238 239 242 242 241 242 240 238 239 239
173 179 182 183 186 188 188 192 198 201 204 207 211 215 216 219 221 222 225 227 231 234 233 230 230 232 232 232 232 229 226 223 224 224 220 218 220 220 221 222 223 224 224 225 228 232 233 234 234 235 239 242 243 243 244 245 244 243 243 242 242 242
172 174 178 182 186 188 189 192 196 200 204 208 212 216 219 222 224 225 227 228 232 235 234 231 230 232 231 230 230 227 224 224 224 224 222 223 224 224 223 223 224 225 226 228 230 233 234 236 237 236 239 245 249 248 247 247 247 246 245 244 245 245
182 181 180 183 188 192 195 197 200 203 206 211 216 219 221 223 224 225 227 229 232 233 231 229 230 231 230 228 226 224 223 224 224 224 223 224 225 225 226 227 227 228 230 231 232 234 235 236 238 238 240 245 249 250 252 252 250 249 247 246 247 248
187 187 187 187 190 193 197 200 203 205 208 213 217 219 222 223 223 224 227 230 232 230 228 228 227 227 227 225 223 222 223 223 222 222 223 224 226 227 228 229 229 230 232 233 234 236 236 237 239 239 240 244 247 250 252 253 252 252 250 247 247 249
192 193 196 198 198 197 199 203 205 207 209 212 216 219 222 222 222 223 225 228 229 227 226 225 222 220 222 223 222 221 221 222 222 223 224 225 227 228 230 230 230 231 232 233 234 237 238 238 239 239 239 242 247 249 249 251 253 254 252 249 249 250
201 202 205 208 208 207 208 210 211 212 213 214 217 221 222 220 220 222 224 225 227 225 222 220 218 217 219 220 221 221 220 221 222 223 224 225 227 228 228 228 229 230 232 233 234 237 240 240 239 239 240 241 245 246 247 250 251 253 255 253 251 252
209 211 213 214 215 217 220 220 221 221 221 220 221 224 225 223 224 225 227 228 228 224 221 218 218 218 218 219 222 222 221 222 223 223 223 224 227 228 227 227 227 228 229 231 233 236 239 240 238 239 240 242 245 247 248 249 249 252 256 255 253 253
214 216 218 219 221 223 226 228 229 229 229 228 227 227 228 228 230 231 230 231 230 227 223 221 221 222 222 223 225 225 225 224 224 223 224 227 229 229 228 227 227 228 229 231 234 236 237 238 238 240 242 243 246 249 249 250 250 252 253 254 256 256
219 219 221 222 224 227 229 230 232 233 234 234 234 233 233 233 234 234 233 233 231 229 227 225 224 225 226 227 228 228 227 226 226 226 227 230 232 231 230 229 230 232 234 235 236 236 237 239 241 242 244 245 247 249 251 252 252 252 251 253 257 258
224 224 225 226 228 230 231 232 233 234 235 236 238 239 238 238 238 237 236 235 234 231 229 228 227 228 228 229 230 230 229 229 230 231 232 232 234 233 231 231 232 234 236 237 237 237 239 242 244 245 246 246 247 249 251 253 252 251 252 254 256 259
227 228 228 229 230 232 232 232 233 235 236 238 239 240 241 241 241 240 239 237 236 234 232 231 230 231 230 230 231 231 230 231 233 235 235 236 236 235 233 233 234 236 237 237 238 239 241 244 245 246 247 248 249 251 252 254 253 252 253 255 257 260
229 230 231 231 232 233 232 232 233 235 238 240 240 241 241 242 242 242 242 240 238 236 236 234 232 233 233 232 233 234 233 233 235 236 237 237 237 237 236 236 237 238 238 239 240 242 244 245 246 247 248 249 251 252 253 254 255 254 255 256 258 260
231 231 232 233 233 234 234 234 235 237 240 242 242 242 243 243 243 243 243 242 240 238 238 237 236 235 234 234 237 237 235 236 237 237 237 237 238 238 238 239 239 240 239 240 242 244 246 247 248 249 250 251 252 253 254 255 255 255 256 258 259 260
234 234 234 235 235 236 236 237 239 241 244 244 244 244 244 244 244 244 244 243 242 241 240 239 238 238 237 237 239 238 237 238 238 238 238 238 238 239 240 240 241 241 242 243 243 245 247 249 250 250 251 252 253 255 256 257 257 257 257 258 259 259
234 235 235 235 235 236 237 239 241 242 244 245 246 246 246 246 245 245 244 244 243 243 242 241 240 240 239 239 240 239 238 239 239 239 240 239 239 239 240 240 241 243 245 246 246 247 248 250 251 252 252 253 255 256 257 258 258 259 259 260 260 260
235 236 235 235 236 238 239 240 241 242 243 244 245 245 246 247 246 246 245 244 244 244 244 243 241 240 239 238 239 239 239 239 240 240 241 240 239 239 240 241 242 244 245 246 247 247 249 250 251 252 253 254 255 257 258 259 260 261 261 262 262 262
238 238 236 235 237 239 240 241 242 243 243 243 243 243 245 246 246 246 246 245 245 244 244 244 243 242 240 239 239 239 239 239 239 240 240 240 240 240 242 243 243 244 244 245 246 248 249 251 252 253 254 255 256 258 259 260 261 262 263 263 263 264